EW7351 Weather Reports


time (UTC)temp
F
wind
direction
speed
knots
gust
knots
rain 1hr
in
rain 24hr
in
rain mn
in
humidity
%
barometer
mb
20260505204550 88 127 5.2 10.4 0.00 0.00 0.00 55 1002.9
20260505204248 88 213 5.2 12.2 0.00 0.00 0.00 54 1003.0
20260505203500 88 120 6.1 12.2 0.00 0.00 0.00 54 1002.9
20260505203207 88 208 6.1 11.3 0.00 0.00 0.00 54 1002.9
20260505202413 87 223 5.2 11.3 0.00 0.00 0.00 56 1003.0
20260505201909 88 214 5.2 13.9 0.00 0.00 0.00 55 1003.1
20260505201351 87 133 6.1 13.9 0.00 0.00 0.00 55 1003.1
20260505200842 87 217 5.2 11.3 0.00 0.00 0.00 58 1003.3
20260505200316 87 139 5.2 11.3 0.00 0.00 0.00 55 1003.1
20260505200018 87 240 4.3 11.3 0.00 0.00 0.00 55 1003.2
20260505195224 87 245 4.3 11.3 0.00 0.00 0.00 58 1003.1
20260505194921 86 243 6.1 11.3 0.00 0.00 0.00 60 1003.2
20260505194134 86 124 6.1 11.3 0.00 0.00 0.00 58 1003.4
20260505193631 86 128 5.2 11.3 0.00 0.00 0.00 60 1003.2
20260505193131 85 229 6.1 13.9 0.00 0.00 0.00 60 1003.1
20260505192600 85 236 6.1 13.9 0.00 0.00 0.00 60 1003.3
20260505192318 85 217 6.1 13.0 0.00 0.00 0.00 60 1003.3
20260505191819 84 161 6.1 13.0 0.00 0.00 0.00 60 1003.3
20260505191322 84 191 5.2 13.0 0.00 0.00 0.00 61 1003.4
20260505190600 84 237 5.2 12.2 0.00 0.00 0.00 61 1003.4
20260505190035 84 210 5.2 12.2 0.00 0.00 0.00 61 1003.5
20260505185537 83 240 6.1 12.2 0.00 0.00 0.00 62 1003.5
20260505185006 83 154 5.2 13.9 0.00 0.00 0.00 61 1003.5
20260505184505 83 166 6.1 13.9 0.00 0.00 0.00 63 1003.6
20260505184005 83 219 7.0 13.9 0.00 0.00 0.00 62 1003.6
20260505183503 83 202 7.0 12.2 0.00 0.00 0.00 61 1003.6
20260505182959 83 174 7.0 13.0 0.00 0.00 0.00 62 1003.6
20260505182653 83 136 7.0 12.2 0.00 0.00 0.00 62 1003.6
20260505181927 83 231 7.0 15.6 0.00 0.00 0.00 62 1003.7
20260505181424 83 228 7.8 15.6 0.00 0.00 0.00 62 1003.7
20260505180920 83 143 7.0 12.2 0.00 0.00 0.00 61 1003.7
20260505180416 83 141 7.0 11.3 0.00 0.00 0.00 61 1003.7
20260505175914 83 224 7.8 13.0 0.00 0.00 0.00 62 1003.7
20260505175344 83 173 7.0 13.0 0.00 0.00 0.00 61 1003.7
20260505174845 83 234 6.1 11.3 0.00 0.00 0.00 61 1003.8
20260505174545 83 204 6.1 11.3 0.00 0.00 0.00 61 1003.8
20260505173802 83 236 6.1 13.0 0.00 0.00 0.00 61 1003.8
20260505173302 83 172 7.0 13.0 0.00 0.00 0.00 62 1003.7
20260505172732 83 174 7.0 13.9 0.00 0.00 0.00 63 1003.8
20260505172218 82 257 7.0 13.9 0.00 0.00 0.00 62 1003.7
20260505171718 82 150 7.0 12.2 0.00 0.00 0.00 63 1003.8
20260505171217 81 221 7.8 13.9 0.00 0.00 0.00 63 1003.9
20260505170723 81 160 8.7 18.2 0.00 0.00 0.00 63 1004.0
20260505170434 81 249 7.8 18.2 0.00 0.00 0.00 63 1003.9
20260505165711 81 166 7.0 13.9 0.00 0.00 0.00 64 1003.9
20260505165431 81 205 7.0 13.9 0.00 0.00 0.00 65 1003.9
20260505164705 81 275 7.0 17.4 0.00 0.00 0.00 64 1003.9
20260505164202 81 175 7.8 17.4 0.00 0.00 0.00 64 1003.8
20260505163701 81 257 7.8 16.5 0.00 0.00 0.00 65 1003.8
20260505163137 81 107 7.8 16.5 0.00 0.00 0.00 65 1003.8
20260505162606 80 205 7.0 13.9 0.00 0.00 0.00 66 1003.9
20260505162106 80 210 7.0 14.8 0.00 0.00 0.00 65 1003.6
20260505161537 80 169 7.0 14.8 0.00 0.00 0.00 65 1003.5
20260505161038 80 258 7.0 13.9 0.00 0.00 0.00 66 1003.6
20260505160509 79 136 7.0 14.8 0.00 0.00 0.00 68 1003.6
20260505153357 77 240 7.8 13.9 0.00 0.00 0.00 72 1003.8
20260505153117 77 182 7.8 13.0 0.00 0.00 0.00 72 1003.7
20260505152617 76 174 7.0 14.8 0.00 0.00 0.00 72 1003.8
20260505151848 76 185 7.0 14.8 0.00 0.00 0.00 73 1003.8
20260505151323 76 221 7.0 15.6 0.00 0.00 0.00 73 1003.9
20260505150754 76 170 6.1 15.6 0.00 0.00 0.00 73 1003.8
20260505150251 75 236 6.1 12.2 0.00 0.00 0.00 74 1003.9
20260505140546 73 143 7.0 16.5 0.00 0.00 0.00 77 1003.6
20260505130244 72 207 5.2 12.2 0.00 0.00 0.00 79 1003.6
20260505124712 71 203 5.2 13.0 0.00 0.00 0.00 79 1003.5
20260505124144 71 176 5.2 12.2 0.00 0.00 0.00 79 1003.3
20260505123643 71 141 6.1 13.0 0.00 0.00 0.00 79 1003.0
20260505123347 71 221 6.1 13.0 0.00 0.00 0.00 79 1003.1
20260505122548 71 214 6.1 15.6 0.00 0.00 0.00 79 1003.1
20260505122313 71 170 6.1 15.6 0.00 0.00 0.00 79 1003.0
20260505121522 71 223 5.2 13.9 0.00 0.00 0.00 79 1003.1
20260505120955 71 231 4.3 9.6 0.00 0.00 0.00 79 1003.0
20260505120649 71 246 4.3 9.6 0.00 0.00 0.00 79 1003.0
20260505120408 71 223 5.2 10.4 0.00 0.00 0.00 79 1002.9
20260505115357 71 229 7.0 13.9 0.00 0.00 0.00 79 1002.9
20260505114855 71 124 7.0 15.6 0.00 0.00 0.00 79 1002.9
20260505114328 71 203 7.0 15.6 0.00 0.00 0.00 79 1002.8
20260505113824 71 179 6.1 13.9 0.00 0.00 0.00 79 1002.7
20260505113323 71 188 7.0 13.9 0.00 0.00 0.00 79 1002.6
20260505112802 71 158 7.0 13.9 0.00 0.00 0.00 79 1002.6
20260505112225 71 164 6.1 12.2 0.00 0.00 0.00 79 1002.6
20260505111725 71 245 5.2 11.3 0.00 0.00 0.00 79 1002.8
20260505111417 71 248 6.1 12.2 0.00 0.00 0.00 79 1002.9
20260505110654 71 152 5.2 12.2 0.00 0.00 0.00 79 1002.8
20260505110142 71 167 5.2 11.3 0.00 0.00 0.00 79 1002.7
20260505102017 71 205 6.1 14.8 0.00 0.00 0.00 78 1002.9
20260505101520 71 129 6.1 11.3 0.00 0.00 0.00 78 1002.8
20260505101014 71 207 6.1 12.2 0.00 0.00 0.00 78 1002.8
20260505100729 71 235 7.0 19.1 0.00 0.00 0.00 78 1002.8
20260505095953 71 283 7.0 19.1 0.00 0.00 0.00 78 1002.8
20260505095454 71 221 7.0 15.6 0.00 0.00 0.00 78 1003.0
20260505094955 71 225 7.0 14.8 0.00 0.00 0.00 78 1003.0
20260505094451 71 153 7.8 13.9 0.00 0.00 0.00 78 1003.0
20260505093949 71 248 7.8 14.8 0.00 0.00 0.00 78 1003.1
20260505093426 71 226 7.8 14.8 0.00 0.00 0.00 78 1003.0
20260505092929 71 173 7.0 14.8 0.00 0.00 0.00 78 1003.2
20260505092405 71 217 7.0 13.9 0.00 0.00 0.00 78 1003.3
20260505091839 71 210 7.0 13.9 0.00 0.00 0.00 78 1003.2
20260505091601 71 137 7.0 13.9 0.00 0.00 0.00 78 1003.2
20260505090838 71 225 6.1 14.8 0.00 0.00 0.00 78 1003.3
20260505090325 71 161 7.0 15.6 0.00 0.00 0.00 78 1003.1
20260505085759 71 155 7.0 15.6 0.00 0.00 0.00 78 1003.1
20260505085253 71 219 7.8 15.6 0.00 0.00 0.00 78 1003.2
20260505085020 71 250 7.8 15.6 0.00 0.00 0.00 78 1003.1
20260505084254 71 224 7.0 13.9 0.00 0.00 0.00 78 1003.1
20260505083726 71 238 7.0 14.8 0.00 0.00 0.00 78 1003.1
20260505083225 71 225 7.0 14.8 0.00 0.00 0.00 78 1003.1
20260505083205 71 151 7.8 16.5 0.00 0.00 0.00 78 1003.2
20260505082222 71 250 7.0 16.5 0.00 0.00 0.00 78 1003.3
20260505081721 71 216 7.0 13.9 0.00 0.00 0.00 78 1003.3
20260505081650 71 191 7.8 13.0 0.00 0.00 0.00 78 1003.2
20260505080703 71 224 7.0 13.0 0.00 0.00 0.00 78 1003.2
20260505080653 71 215 7.0 13.0 0.00 0.00 0.00 78 1003.4
20260505075703 71 146 7.0 13.0 0.00 0.00 0.00 78 1003.5
20260505075204 71 232 6.1 13.9 0.00 0.00 0.00 78 1003.5
20260505074636 71 221 7.0 15.6 0.00 0.00 0.00 77 1003.7
20260505074136 71 161 7.0 15.6 0.00 0.00 0.00 77 1003.8
20260505073608 71 234 6.1 14.8 0.00 0.00 0.00 77 1003.9
20260505073109 71 211 5.2 12.2 0.00 0.00 0.00 77 1003.9
20260505072607 71 164 6.1 16.5 0.00 0.00 0.00 77 1004.1
20260505072304 72 198 7.0 16.5 0.00 0.00 0.00 76 1004.1
20260505071537 72 156 7.8 19.1 0.00 0.00 0.00 76 1004.0
20260505071436 72 107 7.8 20.9 0.00 0.00 0.00 76 1004.1
20260505071103 72 135 7.8 19.1 0.00 0.00 0.00 76 1004.0
20260505070011 72 150 7.8 20.9 0.00 0.00 0.00 75 1004.1
20260505065447 72 195 7.8 16.5 0.00 0.00 0.00 75 1004.2
20260505064943 72 250 7.8 16.5 0.00 0.00 0.00 75 1004.3
20260505064445 72 107 7.0 13.9 0.00 0.00 0.00 75 1004.4
20260505063920 72 245 7.0 13.9 0.00 0.00 0.00 75 1004.3
20260505063351 72 207 6.1 13.9 0.00 0.00 0.00 75 1004.3
20260505062844 72 243 6.1 14.8 0.00 0.00 0.00 75 1004.4
20260505062341 72 205 7.0 14.8 0.00 0.00 0.00 74 1004.3
20260505061838 72 159 6.1 10.4 0.00 0.00 0.00 74 1004.4
20260505061335 72 239 6.1 13.0 0.00 0.00 0.00 74 1004.5
20260505061033 72 186 6.1 12.2 0.00 0.00 0.00 74 1004.4
20260505060547 72 181 5.2 11.3 0.00 0.00 0.00 74 1004.5
20260505060443 72 205 5.2 11.3 0.00 0.00 0.00 73 1004.7
20260505055215 72 168 6.1 11.3 0.00 0.00 0.00 73 1004.5
20260505054713 72 176 6.1 14.8 0.00 0.00 0.00 73 1004.6
20260505054155 72 219 6.1 14.8 0.00 0.00 0.00 72 1004.7
20260505053654 72 208 5.2 12.2 0.00 0.00 0.00 72 1004.8
20260505053127 72 145 5.2 12.2 0.00 0.00 0.00 72 1004.9
20260505052627 72 168 5.2 12.2 0.00 0.00 0.00 72 1004.8
20260505052129 72 226 5.2 13.9 0.00 0.00 0.00 72 1004.8
20260505051625 72 173 5.2 13.9 0.00 0.00 0.00 71 1005.0
20260505051125 72 145 5.2 10.4 0.00 0.00 0.00 71 1005.0
20260505050556 72 238 5.2 8.7 0.00 0.00 0.00 71 1004.9
20260505041413 73 221 4.3 9.6 0.00 0.00 0.00 69 1005.2
20260505040901 73 235 4.3 9.6 0.00 0.00 0.00 69 1005.2
20260505040622 73 167 3.5 8.7 0.00 0.00 0.00 69 1005.3
20260505035836 73 229 3.5 8.7 0.00 0.00 0.00 68 1005.2
20260505035334 73 246 3.5 10.4 0.00 0.00 0.00 68 1005.2
20260505034805 73 213 3.5 10.4 0.00 0.00 0.00 68 1005.0
20260505034303 73 249 2.6 9.6 0.00 0.00 0.00 67 1005.0
20260505033739 74 105 3.5 9.6 0.00 0.00 0.00 67 1005.0
20260505033209 74 140 4.3 11.3 0.00 0.00 0.00 66 1005.1
20260505032708 74 233 4.3 11.3 0.00 0.00 0.00 66 1005.2
20260505032140 74 240 4.3 9.6 0.00 0.00 0.00 66 1005.1
20260505031859 74 146 3.5 9.6 0.00 0.00 0.00 66 1005.2
20260505031109 74 174 3.5 8.7 0.00 0.00 0.00 66 1005.2
20260505030609 74 243 2.6 8.7 0.00 0.00 0.00 66 1005.1
20260505030042 74 157 3.5 7.8 0.00 0.00 0.00 65 1005.1
20260505025515 74 193 3.5 7.0 0.00 0.00 0.00 65 1005.2
20260505025011 74 238 3.5 7.8 0.00 0.00 0.00 65 1005.2
20260505024509 74 200 2.6 7.8 0.00 0.00 0.00 65 1005.2
20260505023940 74 252 3.5 7.0 0.00 0.00 0.00 65 1005.1
20260505023437 74 220 3.5 7.0 0.00 0.00 0.00 64 1005.0
20260505022910 74 250 3.5 8.7 0.00 0.00 0.00 64 1004.9
20260505022342 74 133 2.6 8.7 0.00 0.00 0.00 64 1005.0
20260505021841 75 175 2.6 9.6 0.00 0.00 0.00 64 1005.0
20260505021533 75 202 3.5 9.6 0.00 0.00 0.00 63 1004.9
20260505021035 75 223 3.5 8.7 0.00 0.00 0.00 63 1004.9
20260505020243 75 232 3.5 7.8 0.00 0.00 0.00 63 1004.9
20260505015743 75 142 3.5 10.4 0.00 0.00 0.00 62 1004.9
20260505015217 75 234 4.3 10.4 0.00 0.00 0.00 62 1004.9
20260505014652 76 232 4.3 12.2 0.00 0.00 0.00 62 1005.0
20260505014146 76 171 5.2 12.2 0.00 0.00 0.00 61 1005.0
20260505013643 76 216 5.2 11.3 0.00 0.00 0.00 61 1004.9
20260505013137 76 219 5.2 11.3 0.00 0.00 0.00 61 1004.9
20260505012611 76 234 5.2 14.8 0.00 0.00 0.00 61 1004.8
20260505012111 76 221 6.1 14.8 0.00 0.00 0.00 61 1004.8
20260505011547 76 270 5.2 13.0 0.00 0.00 0.00 60 1004.8
20260505011021 76 160 5.2 13.0 0.00 0.00 0.00 60 1004.8
20260505010522 76 154 6.1 11.3 0.00 0.00 0.00 60 1004.8
20260505005957 77 233 7.0 12.2 0.00 0.00 0.00 59 1004.7
20260505005435 77 257 6.1 12.2 0.00 0.00 0.00 59 1004.8
20260505004934 77 351 5.2 14.8 0.00 0.00 0.00 59 1004.9
20260505004654 77 200 6.1 14.8 0.00 0.00 0.00 58 1004.9
20260505003934 77 175 7.0 16.5 0.00 0.00 0.00 58 1005.0
20260505003418 77 131 7.8 16.5 0.00 0.00 0.00 57 1004.9
20260505002918 78 139 8.7 17.4 0.00 0.00 0.00 57 1004.8
20260505002356 78 179 7.8 17.4 0.00 0.00 0.00 56 1004.8
20260505001842 78 225 7.0 15.6 0.00 0.00 0.00 56 1005.0
20260505001829 78 164 7.0 15.6 0.00 0.00 0.00 56 1005.0
20260505000821 78 153 7.8 14.8 0.00 0.00 0.00 56 1005.1
20260505000310 78 207 7.8 14.8 0.00 0.00 0.00 56 1005.0
20260504235809 78 234 7.0 14.8 0.00 0.00 0.00 56 1005.2
20260504235306 78 155 7.0 14.8 0.00 0.00 0.00 55 1005.1
20260504234805 78 201 7.8 15.6 0.00 0.00 0.00 55 1005.2
20260504234304 78 231 8.7 16.5 0.00 0.00 0.00 55 1005.2
20260504233738 78 101 8.7 20.0 0.00 0.00 0.00 55 1005.2
20260504233120 79 237 7.8 16.5 0.00 0.00 0.00 55 1005.2
20260504232600 79 257 8.7 19.1 0.00 0.00 0.00 55 1005.1
20260504232100 79 219 8.7 19.1 0.00 0.00 0.00 54 1005.2
20260504231602 79 234 7.8 17.4 0.00 0.00 0.00 54 1005.5
20260504231041 80 229 7.8 16.5 0.00 0.00 0.00 53 1005.5
20260504230515 80 178 8.7 18.2 0.00 0.00 0.00 52 1005.5
20260504225950 80 132 7.8 18.2 0.00 0.00 0.00 51 1005.6
20260504225450 81 178 7.8 14.8 0.00 0.00 0.00 52 1005.6
20260504224950 81 222 7.8 16.5 0.00 0.00 0.00 52 1005.7
20260504224446 81 224 7.8 16.5 0.00 0.00 0.00 53 1005.8
20260504223949 80 155 8.7 15.6 0.00 0.00 0.00 52 1005.6
20260504223446 81 274 7.8 15.6 0.00 0.00 0.00 52 1005.6
20260504222949 80 175 7.8 13.9 0.00 0.00 0.00 52 1005.5
20260504222421 81 195 7.8 15.6 0.00 0.00 0.00 52 1005.7
20260504222119 81 134 8.7 17.4 0.00 0.00 0.00 52 1005.7
20260504221402 81 210 9.6 20.9 0.00 0.00 0.00 51 1005.8
20260504220857 81 218 9.6 20.9 0.00 0.00 0.00 51 1005.8
20260504220357 81 158 8.7 19.1 0.00 0.00 0.00 51 1006.0
20260504215855 81 165 8.7 19.1 0.00 0.00 0.00 51 1006.0
20260504215331 81 231 8.7 17.4 0.00 0.00 0.00 51 1006.1
20260504214803 81 173 8.7 17.4 0.00 0.00 0.00 52 1006.2
20260504214242 80 249 7.8 14.8 0.00 0.00 0.00 52 1006.3
20260504213735 80 114 8.7 14.8 0.00 0.00 0.00 52 1006.3
20260504213459 80 205 9.6 18.2 0.00 0.00 0.00 51 1006.4
20260504212707 80 225 8.7 18.2 0.00 0.00 0.00 50 1006.5
20260504212139 80 159 8.7 16.5 0.00 0.00 0.00 51 1006.7
20260504211614 80 167 8.7 15.6 0.00 0.00 0.00 51 1006.7
20260504211109 80 139 7.8 16.5 0.00 0.00 0.00 51 1006.8
20260504210602 80 178 8.7 16.5 0.00 0.00 0.00 49 1006.8
20260504210101 80 177 7.8 16.5 0.00 0.00 0.00 49 1007.0
20260504205532 80 234 7.8 20.0 0.00 0.00 0.00 51 1007.1
20260504205031 80 69 8.7 20.0 0.00 0.00 0.00 49 1007.1